This is the latest recevied weather packets stored in our database for station/object OK1KKY-18. If no packets are shown the sender has not sent any weather packets the latest 10 day(s).
| Time | Temp. | Humidity | Pressure | Rain* | Wind** | Luminosity | Snow |
|---|---|---|---|---|---|---|---|
| 1777898757 | 22.78° C | 33% | 1014.2 hPa | - | - | - | - |
| 1777898157 | 22.22° C | 36% | 1014.3 hPa | - | - | - | - |
| 1777897557 | 21.67° C | 36% | 1014.3 hPa | - | - | - | - |
| 1777896957 | 21.67° C | 36% | 1014.3 hPa | - | - | - | - |
| 1777896357 | 21.11° C | 37% | 1014.3 hPa | - | - | - | - |
| 1777895757 | 21.67° C | 38% | 1014.5 hPa | - | - | - | - |
| 1777895158 | 21.67° C | 37% | 1014.5 hPa | - | - | - | - |
| 1777894557 | 20.56° C | 37% | 1014.5 hPa | - | - | - | - |
| 1777893957 | 20.56° C | 40% | 1014.6 hPa | - | - | - | - |
| 1777893357 | 20.56° C | 40% | 1014.7 hPa | - | - | - | - |
| 1777892757 | 20° C | 40% | 1014.8 hPa | - | - | - | - |
| 1777892157 | 19.44° C | 42% | 1014.9 hPa | - | - | - | - |
| 1777891557 | 19.44° C | 43% | 1015.1 hPa | - | - | - | - |
| 1777890958 | 19.44° C | 42% | 1015.2 hPa | - | - | - | - |
| 1777890357 | 18.33° C | 44% | 1015.4 hPa | - | - | - | - |
| 1777889757 | 18.33° C | 44% | 1015.4 hPa | - | - | - | - |
| 1777889157 | 18.33° C | 45% | 1015.3 hPa | - | - | - | - |
| 1777888557 | 17.78° C | 45% | 1015.4 hPa | - | - | - | - |
| 1777887957 | 17.78° C | 46% | 1015.5 hPa | - | - | - | - |
| 1777887357 | 18.33° C | 43% | 1015.5 hPa | - | - | - | - |
| 1777886757 | 17.78° C | 45% | 1015.7 hPa | - | - | - | - |
| 1777886157 | 17.22° C | 43% | 1015.6 hPa | - | - | - | - |
| 1777885557 | 17.78° C | 43% | 1015.6 hPa | - | - | - | - |
| 1777884958 | 17.78° C | 43% | 1015.7 hPa | - | - | - | - |
| 1777884357 | 16.67° C | 45% | 1015.7 hPa | - | - | - | - |
* Rain since midnight (hover to see other rain measurements)
** Current wind speed in m/s (hover to see current wind gust speed)